LUCAS (JDRS-1) (47202 NORAD) Tracking and Keplerian Element Data

This shows tracking and keplerian element data for the satellite.

Feedback or suggestion? Click here.




ElementValue
Catalog47202
NameLUCAS (JDRS-1)
Epoch Orbit56
Epoch Day16.07766508
Epoch Year2021
RAAN53.7301
Inclination0.0107
Eccentricity0.0003655
Argument of Perigee251.4073
Mean Anonmoly289.2773
Mean Motion1.0026836
Decay Rate-2.4E-06
L11 47202U 20089A 21016.07766508 -.00000240 00000-0 00000+0 0 9999
L22 47202 0.0107 53.7301 0003655 251.4073 289.2773 1.00268360 560

Live tracking and technical data element details for LUCAS (JDRS-1) (NORAD 47202). LUCAS (JDRS-1) can be tracked NOW for your location showing map with azimuth and elevation plus other details from your city location.

Track the satellite on the map from your city or location and see movement details for azimuth, elevation, latitude, longitude, range, height, and movement on the map or in text.







IsCatalogInMostPopularTable: catalog: 47202, numindb: 23
Update: records affected: 1



GetName: 47202 LUCAS (JDRS-1)

Hit Count: updated at: Sun, 17 Jan 2021 09:42:35 GMT